Location: Slidell
(30.2789°N, 89.7378°W)
Time: 12:29:54
(UTC-05:00)

Daily predictions for brighter satellites

Satellite Brightness Start Highest point End
(mag) Time Altitude Azimuth Time Altitude Azimuth Time Altitude Azimuth
Atlas Centaur 2 1.7 18:38:17 10° W 18:42:25 77° S 18:47:35 10° ESE
Tiangong 1 3.9 18:45:26 10° WSW 18:46:45 13° SW 18:48:03 10° SSW
Cosmos 2227 Rocket 3.7 18:44:06 10° SE 18:47:06 15° E 18:50:07 10° ENE
Molniya-1 4.5 18:49:17 10° SSE 18:50:15 13° ESE 18:51:00 11° E
USA 267 4.5 18:46:20 10° ENE 18:51:06 21° ESE 18:55:50 10° S
Cosmos 2151 2.9 18:47:40 10° N 18:51:55 66° E 18:56:06 10° SSE
Skynet4D Del rocket 4.3 18:45:54 10° W 18:52:08 67° S 18:59:21 10° E
YAOGAN 1 2.5 18:52:17 10° SSE 18:56:34 73° ENE 19:00:54 10° N
Cosmos 2058 2.8 18:54:37 10° N 18:58:47 80° E 19:02:54 10° S
ALOS 3.1 18:55:58 10° SE 18:59:58 29° ENE 19:03:59 10° NNE
Cosmos 1300 4.0 18:57:28 10° SE 19:00:17 20° E 19:03:05 10° NE
Cosmos 1400 Rocket 3.2 18:56:39 10° NNW 19:00:37 68° W 19:04:30 10° S
Cosmos 1269 Rocket 4.0 18:55:48 10° S 19:00:59 66° ESE 19:06:14 10° NNE
GRACE-2 3.6 18:58:53 10° S 19:01:24 62° E 19:03:56 10° N
GRACE-1 3.5 19:03:39 10° S 19:06:12 85° E 19:08:47 10° N
Cosmos 2360 Rocket 2.2 19:00:47 10° NNW 19:06:29 84° ENE 19:12:08 10° SSE
MOS 1 4.3 19:01:12 10° SSE 19:06:48 68° ENE 19:12:26 10° N
Cosmos 1821 Rocket 4.1 19:02:59 10° SSE 19:08:53 52° E 19:14:54 10° NNE
Cosmos 1934 Rocket 4.5 19:03:12 10° SSE 19:08:58 38° E 19:14:47 10° NNE
SPOT 3 Rocket 3.6 19:05:25 10° SSE 19:10:29 58° ENE 19:15:36 10° N
Cosmos 2239 Rocket 4.5 19:08:52 10° S 19:14:51 60° E 19:20:53 10° NNE
Cosmos 2219 3.3 19:10:21 10° SSW 19:16:05 86° WNW 19:21:52 10° NNE
Aureole 2 Rocket 4.1 19:13:07 10° NNE 19:16:08 20° ENE 19:16:42 20° E
COSMOS 2428 3.1 19:11:44 10° N 19:17:05 41° ENE 19:22:25 10° SE
CZ-4 R/B 3.2 19:13:10 10° SSW 19:17:05 37° W 19:20:59 10° NNW
Hubble Space Telescope 1.7 19:13:31 10° SW 19:17:19 36° SSE 19:19:41 19° ESE
FENGYUN 3A 3.9 19:12:29 10° SE 19:17:36 46° ENE 19:22:46 10° N
MONITOR-E 4.1 19:15:59 10° S 19:19:03 86° WSW 19:22:08 10° NNW
Cosmos 2333 Rocket 3.4 19:15:33 10° NNE 19:19:56 22° ENE 19:21:36 19° E
Cosmos 1452 Rocket 3.6 19:14:54 10° NNW 19:20:10 83° WSW 19:25:25 10° SSE
Cosmos 2221 2.9 19:17:49 10° SSW 19:22:05 66° W 19:26:25 10° N
Iridium 4 Rocket 3.6 19:16:57 10° S 19:22:22 74° E 19:28:11 10° N
BREEZE-M R/B 2.1 19:20:48 10° SW 19:23:11 65° NW 19:25:04 20° NE
Cosmos 2297 Rocket 3.0 19:19:35 10° SSE 19:24:17 28° ESE 19:27:02 19° ENE
Delta 2 Rocket 3.8 19:21:21 10° WNW 19:24:59 38° N 19:26:27 25° NE
Cosmos 494 Rocket 4.3 19:20:37 10° S 19:25:20 39° ESE 19:30:05 10° NNE
Cosmos 2098 Rocket 3.2 19:21:19 10° S 19:25:30 81° E 19:30:55 10° N
LE-5 4.4 19:26:02 10° SW 19:27:49 27° SSE 19:28:03 26° SSE
ERS-2 4.5 19:25:06 10° SSW 19:28:17 27° W 19:31:28 10° NW
Delta 198 4.1 19:25:28 10° WSW 19:28:55 33° S 19:30:28 23° SE
Meteor 2-10 3.9 19:27:54 10° S 19:32:48 58° E 19:37:47 10° NNE
Cosmos 2082 4.3 19:28:37 10° SSE 19:33:41 33° ESE 19:36:17 23° ENE
Cosmos 921 Rocket 3.6 19:29:36 10° NNW 19:33:56 59° W 19:38:09 10° S
FALCON 9 R/B 3.1 19:33:00 10° WSW 19:34:59 19° SSW 19:38:12 10° SSE
Cosmos 1726 2.5 19:34:12 10° SSW 19:37:52 66° W 19:41:33 10° N
FengYun 1-2 T 4.5 19:35:23 10° SE 19:40:32 43° ENE 19:45:42 10° N
Fermi 4.5 19:36:48 10° WSW 19:40:44 43° S 19:42:06 32° SE
ASTRO E2 2.8 19:38:50 10° W 19:42:49 68° SSW 19:44:02 41° SE
Cosmos 1605 Rocket 4.1 19:37:29 10° SSE 19:43:20 49° E 19:49:10 10° NNE
Sakura Rocket 4.3 19:40:40 10° SSW 19:43:33 20° SSE 19:43:41 20° SSE
ATLAS 2A CENTAUR R/B 1.7 19:42:12 10° SW 19:43:20 26° SSW 19:43:20 26° SSW
Cosmos 2322 4.4 19:38:41 10° NNW 19:44:15 56° WSW 19:49:47 10° S
Cosmos 2123 Rocket 4.1 19:39:42 10° N 19:45:43 48° E 19:51:45 10° SSE
NOAA 12 4.4 19:48:06 10° S 19:53:21 67° WSW 19:58:38 10° NNW
Cosmos 2219 Rocket 2.2 19:48:19 10° N 19:53:47 52° ENE 19:55:33 38° ESE
Cosmos 2251 Rocket 3.5 19:49:12 10° S 19:54:20 56° ESE 19:56:38 32° NE
DELTA 2 R/B (1) 3.5 19:54:54 10° WNW 20:00:30 78° NNE 20:01:54 52° E
CZ-4C R/B 4.2 20:03:40 10° WSW 20:07:45 23° NW 20:12:14 10° N
NOSS 0 Rocket 3.9 20:05:27 10° N 20:11:29 55° ENE 20:11:40 55° ENE
Sich 1 3.3 20:11:38 10° NNW 20:15:59 66° W 20:18:38 23° S
H-2A R/B 4.0 20:19:07 36° NNW 20:19:07 36° NNW 20:21:35 10° NNW
In-Cosmos 22 Rocket 4.3 20:22:10 10° N 20:27:58 81° W 20:30:28 36° S
Cosmos 2237 Rocket 3.2 20:24:04 10° N 20:27:16 33° N 20:27:16 33° N
Cosmos 2227 Rocket 2.8 20:25:04 10° SW 20:30:34 54° WNW 20:34:04 22° N
Atlas Centaur 2 3.0 20:26:48 10° W 20:31:15 36° SSW 20:31:24 36° SSW
Gbstr 26 Del rocket 4.0 20:28:32 10° NW 20:33:16 61° N 20:33:16 61° N
USA 267 3.3 20:32:24 48° NNE 20:34:20 76° NW 20:40:51 10° SW
Hubble Space Telescope 3.6 20:54:15 10° WSW 20:55:02 15° WSW 20:55:02 15° WSW
Centaur D AC-28 3.3 20:59:16 10° WSW 21:42:08 - E 21:03:27 65° SSW
Cosmos 2333 Rocket 3.4 20:58:55 10° NW 21:03:42 40° W 21:03:42 40° W
Cosmos 2297 Rocket 3.8 21:03:14 10° SW 21:08:09 30° WNW 21:08:59 29° NW
